Weather History for Wise, VA

Change the Weather History Date:

Friday, January 18, 2013

  Actual Average Record
Temperature  
Mean Temperature 27 °F -  
Max Temperature 33 °F 37 °F 50 °F (1999)
Min Temperature 21 °F 21 °F 1 °F (2003)
Degree Days  
Heating Degree Days 38    
Moisture  
Dew Point 27 °F    
Average Humidity 93    
Maximum Humidity 100    
Minimum Humidity 64    
Precipitation  
Precipitation 0.25 in - - ()
Sea Level Pressure  
Sea Level Pressure 30.38 in    
Wind  
Wind Speed 1 mph (SW)    
Max Wind Speed 9 mph    
Max Gust Speed -    
Visibility 8 miles    
Events      
Averages and records for this station are not official NWS values.
T = Trace of Precipitation, MM = Missing Value Source: NWS Daily Summary

Daily Weather History Graph

Daily Weather History Graph

Search for Another Location

Airport:

Trip Planner

Search our weather history database for the weather conditions in past years. The results will help you decide how hot, cold, wet, or windy it might be!

Date:

Astronomy

Jan. 18, 2013 Rise Set
Actual Time 7:41 AM EST 5:40 PM EST
Civil Twilight 7:13 AM EST 6:08 PM EST
Nautical Twilight 6:41 AM EST 6:40 PM EST
Astronomical Twilight 6:10 AM EST 7:11 PM EST
Moon 11:31 AM EST (1/18) 12:18 AM EST (1/18)
Length of Visible Light 10h 55m
Length of Day
9h 59m
Waxing Crescent, 47% of the Moon is Illuminated
Jan 18
Waxing Crescent
Jan 18
First Quarter
Jan 26
Full
Feb 3
Last Quarter
Feb 10
New

Hourly Weather History & Observations

Time (EST) Temp. Windchill Dew Point Humidity Pressure Visibility Wind Dir Wind Speed Gust Speed Precip Events Conditions
12:15 AM 26.6 °F - 26.6 °F 100% 30.25 in 10.0 mi Calm Calm - N/A   Clear
12:35 AM 24.8 °F - 24.8 °F 100% 30.27 in 4.0 mi Calm Calm - N/A   Clear
12:55 AM 26.6 °F - 26.6 °F 100% 30.28 in 4.0 mi Calm Calm - N/A   Clear
1:15 AM 26.6 °F - 26.6 °F 100% 30.28 in 10.0 mi Calm Calm - N/A   Clear
1:35 AM 24.8 °F - 24.8 °F 100% 30.29 in 7.0 mi Calm Calm - 0.01 in   Clear
1:55 AM 26.6 °F - 26.6 °F 100% 30.30 in 10.0 mi Calm Calm - 0.01 in   Clear
2:15 AM 26.6 °F - 26.6 °F 100% 30.30 in 10.0 mi Calm Calm - N/A   Clear
2:35 AM 26.6 °F - 26.6 °F 100% 30.30 in 10.0 mi Calm Calm - N/A   Clear
2:55 AM 26.6 °F - 26.6 °F 100% 30.30 in 10.0 mi Calm Calm - N/A   Mostly Cloudy
3:15 AM 28.4 °F 24.6 °F 28.4 °F 100% 30.31 in 10.0 mi WNW 3.5 mph - N/A   Overcast
3:35 AM 28.4 °F 24.6 °F 28.4 °F 100% 30.31 in 10.0 mi NW 3.5 mph - N/A   Overcast
3:55 AM 28.4 °F 24.6 °F 28.4 °F 100% 30.31 in 7.0 mi NW 3.5 mph - N/A   Overcast
4:15 AM 28.4 °F 24.6 °F 28.4 °F 100% 30.31 in 5.0 mi NW 3.5 mph - N/A   Overcast
4:35 AM 28.4 °F 23.3 °F 28.4 °F 100% 30.31 in 7.0 mi NNW 4.6 mph - N/A   Overcast
4:55 AM 28.4 °F - 28.4 °F 100% 30.31 in 5.0 mi Calm Calm - N/A   Overcast
5:15 AM 28.4 °F - 28.4 °F 100% 30.32 in 4.0 mi Calm Calm - N/A   Overcast
5:35 AM 28.4 °F 24.6 °F 28.4 °F 100% 30.33 in 2.5 mi NW 3.5 mph - N/A   Overcast
5:55 AM 28.4 °F 24.6 °F 28.4 °F 100% 30.34 in 2.5 mi NW 3.5 mph - N/A   Overcast
6:15 AM 28.4 °F - 28.4 °F 100% 30.34 in 1.8 mi Calm Calm - N/A   Overcast
6:35 AM 28.4 °F - 28.4 °F 100% 30.35 in 1.2 mi Calm Calm - N/A   Overcast
6:55 AM 28.4 °F - 28.4 °F 100% 30.36 in 3.0 mi Calm Calm - N/A   Overcast
7:15 AM 26.6 °F - 26.6 °F 100% 30.37 in 3.0 mi Calm Calm - N/A   Overcast
7:35 AM 26.6 °F 22.6 °F 26.6 °F 100% 30.37 in 3.0 mi NNW 3.5 mph - N/A   Overcast
7:55 AM 26.6 °F 22.6 °F 26.6 °F 100% 30.39 in 5.0 mi NW 3.5 mph - N/A   Overcast
8:15 AM 26.6 °F - 26.6 °F 100% 30.39 in 5.0 mi Calm Calm - N/A   Overcast
8:35 AM 26.6 °F - 26.6 °F 100% 30.40 in 3.0 mi Calm Calm - N/A   Overcast
8:55 AM 26.6 °F - 26.6 °F 100% 30.41 in 3.0 mi Calm Calm - N/A   Overcast
9:15 AM 26.6 °F - 26.6 °F 100% 30.42 in 7.0 mi Calm Calm - N/A   Overcast
9:35 AM 28.4 °F - 28.4 °F 100% 30.42 in 7.0 mi Calm Calm - N/A   Overcast
9:55 AM 28.4 °F - 28.4 °F 100% 30.43 in 10.0 mi Calm Calm - N/A   Overcast
10:15 AM 30.2 °F - 28.4 °F 93% 30.44 in 10.0 mi Calm Calm - N/A   Mostly Cloudy
10:35 AM 32.0 °F - 28.4 °F 87% 30.44 in 10.0 mi Calm Calm - N/A   Mostly Cloudy
10:55 AM 32.0 °F - 28.4 °F 87% 30.44 in 10.0 mi Calm Calm - N/A   Mostly Cloudy
11:15 AM 32.0 °F - 28.4 °F 87% 30.44 in 10.0 mi Calm Calm - N/A   Mostly Cloudy
11:35 AM 32.0 °F - 28.4 °F 87% 30.43 in 10.0 mi Calm Calm - N/A   Scattered Clouds
11:55 AM 32.0 °F - 28.4 °F 87% 30.42 in 10.0 mi Calm Calm - 0.06 in   Clear
12:15 PM 32.0 °F - 28.4 °F 87% 30.42 in 10.0 mi Calm Calm - 0.02 in   Scattered Clouds
12:35 PM 33.8 °F - 30.2 °F 87% 30.41 in 10.0 mi Calm Calm - 0.02 in   Overcast
12:55 PM 33.8 °F - 30.2 °F 87% 30.41 in 10.0 mi Calm Calm - 0.04 in   Overcast
1:15 PM 33.8 °F - 30.2 °F 87% 30.41 in 10.0 mi Calm Calm - N/A   Overcast
1:35 PM 33.8 °F - 30.2 °F 87% 30.41 in 10.0 mi Calm Calm - 0.02 in   Overcast
1:55 PM 33.8 °F - 30.2 °F 87% 30.41 in 10.0 mi Calm Calm - 0.02 in   Overcast
2:15 PM 33.8 °F - 32.0 °F 93% 30.42 in 10.0 mi Calm Calm - 0.02 in   Overcast
2:35 PM 33.8 °F - 32.0 °F 93% 30.42 in 10.0 mi Calm Calm - 0.03 in   Overcast
2:55 PM 33.8 °F - 32.0 °F 93% 30.42 in 10.0 mi Calm Calm - 0.04 in   Overcast
3:15 PM 33.8 °F - 32.0 °F 93% 30.42 in 10.0 mi Calm Calm - 0.01 in   Overcast
3:35 PM 32.0 °F - 30.2 °F 93% 30.42 in 10.0 mi Calm Calm - 0.02 in   Overcast
3:55 PM 33.8 °F 30.8 °F 30.2 °F 87% 30.42 in 10.0 mi WSW 3.5 mph - 0.04 in   Mostly Cloudy
4:15 PM 33.8 °F 30.8 °F 30.2 °F 87% 30.43 in 10.0 mi SW 3.5 mph - 0.01 in   Scattered Clouds
4:35 PM 33.8 °F 30.8 °F 30.2 °F 87% 30.43 in 10.0 mi SW 3.5 mph - 0.02 in   Scattered Clouds
4:55 PM 32.0 °F - 30.2 °F 93% 30.43 in 10.0 mi Calm Calm - 0.03 in   Clear
5:15 PM 32.0 °F 28.7 °F 30.2 °F 93% 30.43 in 10.0 mi SSW 3.5 mph - 0.01 in   Scattered Clouds
5:35 PM 30.2 °F 26.7 °F 30.2 °F 100% 30.43 in 10.0 mi SSW 3.5 mph - 0.01 in   Scattered Clouds
5:55 PM 30.2 °F - 30.2 °F 100% 30.42 in 7.0 mi Calm Calm - 0.01 in   Mostly Cloudy
6:15 PM 28.4 °F - 28.4 °F 100% 30.42 in 4.0 mi Calm Calm - N/A   Scattered Clouds
6:35 PM 30.2 °F 26.7 °F 30.2 °F 100% 30.42 in 10.0 mi South 3.5 mph - N/A   Clear
6:55 PM 28.4 °F 24.6 °F 28.4 °F 100% 30.42 in 4.0 mi SW 3.5 mph - N/A   Clear
7:15 PM 28.4 °F 24.6 °F 28.4 °F 100% 30.42 in 7.0 mi South 3.5 mph - N/A   Clear
7:35 PM 28.4 °F 24.6 °F 28.4 °F 100% 30.42 in 10.0 mi South 3.5 mph - N/A   Clear
7:55 PM 28.4 °F - 26.6 °F 93% 30.42 in 10.0 mi Calm Calm - N/A   Clear
8:15 PM 28.4 °F 22.2 °F 19.4 °F 69% 30.41 in 10.0 mi SSW 5.8 mph - N/A   Clear
8:35 PM 26.6 °F 21.2 °F 21.2 °F 80% 30.40 in 10.0 mi South 4.6 mph - N/A   Clear
8:55 PM 24.8 °F 19.1 °F 19.4 °F 80% 30.40 in 10.0 mi South 4.6 mph - N/A   Clear
9:15 PM 21.2 °F 13.6 °F 19.4 °F 93% 30.40 in 10.0 mi SSW 5.8 mph - N/A   Clear
9:35 PM 26.6 °F 20.0 °F 21.2 °F 80% 30.40 in 10.0 mi SSW 5.8 mph - N/A   Clear
9:55 PM 23.0 °F 14.7 °F 17.6 °F 80% 30.39 in 10.0 mi SSE 6.9 mph - N/A   Clear
10:15 PM 24.8 °F 16.9 °F 19.4 °F 80% 30.39 in 10.0 mi South 6.9 mph - N/A   Clear
10:35 PM 30.2 °F 22.6 °F 19.4 °F 64% 30.37 in 10.0 mi SSE 8.1 mph - N/A   Clear
11:15 PM 28.4 °F 23.3 °F 21.2 °F 74% 30.36 in 10.0 mi South 4.6 mph - N/A   Clear
11:35 PM 28.4 °F 23.3 °F 21.2 °F 74% 30.36 in 10.0 mi SSW 4.6 mph - N/A   Clear
11:55 PM 26.6 °F 17.5 °F 21.2 °F 80% 30.36 in 10.0 mi SSW 9.2 mph - N/A   Clear